STARLINK-35784, 67093

Orbit data source: Space-Track

STARLINK-35784, 67093 is a payload satellite owned by SpaceX/Seattle (US) in LEO that was launched on Sun, 14 Dec 2025 UTC via an FALCON 9 launch vehicle from the Air Force Western Test Range (AFWTR). Payload-class satellites include a variety of spacecraft equipped with specific instruments for various scientific and technological missions. These include communications satellites like Starlink; space stations such as the ISS; scientific satellites like the Hubble; Earth observation satellites from companies like Planet Labs, Umbra, and HawkEye 360; GPS; miniature CubeSats for education and research; and military/defense satellites.

Loading next visibility...
Identifier
67093, 2025-298U
Orbit
LEO
Country
Flag of USUS
Related business
Manufacturer
SpaceX/Seattle
Mission
Operational Commercial Communications
Bus & Motor
STARLINK V2MO, Unknown motor
Mass
575 kg wet, ~530 kg dry
Launch date (UTC)
2025-12-14 (6 months ago)
Launch vehicle
FALCON 9
Launch site
Air Force Western Test Range (AFWTR)
Object type
Payload
Rocket body
Debris
Shape & HBR
Box + 2 Pan, 17.7 m
Radar Cross Section
36.964 m², Large (>1 m²)

Expand to show TLE details & history
Last TLE update: 17 hours ago

TLE from 17 hours ago
0 STARLINK-35784
1 67093U 25298U   26171.25819743  .00004708  00000-0  40200-3 0  9995
2 67093  70.0011 115.7491 0002895 267.2544  92.8283 14.98341099 28581
Epoch: 2026-06-20T06:11Z
TLE epoch observation values (Epoch: 2026-06-20T06:11:48.257Z)
Latitude
-0.00012°
Longitude
114.32258°
Altitude
574.545 km
Speed
7.574 km/s
True Right ascension
07h 42m 59s
True Declination
0° 00' 00"
Sunlit
Object was in daylight at epoch
Visualization orbit readout
Latitude
Unknown
Longitude
Unknown
Altitude
Unknown
Speed
Unknown
Apparent Right ascension
Unknown
Apparent Declination
Unknown
Sunlit
N/A
Visualization observer readout
Local Sidereal Time
10:18:59
Azimuth
Unknown
Elevation
Unknown
Doppler factor
Unknown
Orbital elements
Apogee altitude
571.981 km
Perigee altitude
567.958 km
Semi-major axis
6,948.107 km
Eccentricity
0.00029
Inclination
70.0011°
RAAN
115.7491°
Arg. of periapsis
267.2544°
True anomaly
92.86143°
Mean anomaly
92.8283°
Eccentric anomaly
92.84487°
Mean motion
3.74752 °/min
Orbital period
96.06 mins
BSTAR
0.000402
Loading maneuver chart data...
Computing Atmospheric mass density...
Loading historical data...
Loading historical data...
Loading historical data...
Loading historical data...
Loading historical data...
Loading historical data...
Loading historical data...

Documentation

Showing up to 5 results
|